Location: ČR
(50.0000°N, 15.0000°E)
Time: 14:13:36
(UTC+00:00)

Explorer 7 - Pass Details

Date: 30 October 2021
Orbit: 483 x 675 km, 50.3° (Epoch: 27 November)

Event Time Altitude Azimuth Distance (km) Brightness Sun altitude
Rises 21:15:55 0° 278° (W) 2,679 - -49.9°
Reaches altitude 10° 21:18:05 10° 278° (W) 1,817 - -50.1°
Maximum altitude 21:22:14 88° 192° (SSW) 577 - -50.4°
Drops below altitude 10° 21:26:40 10° 101° (E) 1,938 - -50.8°
Sets 21:29:02 0° 101° (ESE) 2,874 - -51.0°
